User: anonymous   Login
Location: Caltech
(34.1382°N, 118.1253°W)
Time: 16:59:14
(UTC-08:00)
Language:

Cosmos 1833 Rocket - Orbit

View from above orbital plane
View from above orbital plane
View from above satellite
View from above satellite

Ground track
Ground track

The orbit data is extracted from the following two-line orbital elements,

1 17590U 87027B   15060.25280141  .00000234  00000-0  14096-3 0  9993
2 17590 071.0027 116.4877 0004113 170.2416 189.8788 14.16682630445307
Epoch (UTC): 01 March 2015 06:04:02
Eccentricity: 0.0004113
inclination: 71.0027°
perigee height: 833 km
apogee height: 839 km
right ascension of ascending node: 116.4877°
argument of perigee: 170.2416°
revolutions per day: 14.16682630
mean anomaly at epoch: 189.8788°
orbit number at epoch: 44530

The dashed part of the orbit path shows where the satellite is in the earth's shadow,  

DLR